Powrót do katalogu

HULIANWANG DIGUI-26

AktywnyŁącznośćPO
NORAD 63693·PAYLOAD·🇨🇳 China

Wystrzelony Apr 28, 2025 z Wenchang Space Launch Site

Loading…

Następne Przeloty (najbliższe 24 godziny)

TLE

ŚwieżeSource: Space-Track

Epoka: Sep 14, 2026, 13:43 UTC

1 63693U 25086G   26257.57209043  .00000051  00000-0  85352-4 0  9993
2 63693  86.5020 283.1196 0002045  74.8596 285.2764 13.24412720 66697

Śledź HULIANWANG DIGUI-26 w czasie rzeczywistym z AllMySat

Download on the App Store